Regional Weather Roundup
Issued by NWS Green Bay, WI

Home | Current Version | Previous Version | Graphics & Text | Print | Product List | Glossary Off
Versions: 1 2 3 4 5 6 7 8 9 10 11 12 13 14 15 16 17 18 19 20 21 22 23 24 25 26 27 28 29 30 31 32 33 34 35 36 37 38 39 40 41 42 43 44 45 46 47 48 49 50

000
ASUS43 KGRB 250000
RWRGRB

NORTH-CENTRAL AND NORTHEAST WISCONSIN REGIONAL WEATHER ROUNDUP
NATIONAL WEATHER SERVICE GREEN BAY WI
700 PM CDT TUE APR 24 2018

WIZ005-009-010>012-018-019-250100-
NORTH CENTRAL WISCONSIN

CITY           SKY/WX    TMP DP  RH WIND       PRES   REMARKS
IRONWOOD       FAIR      44  36  73 CALM      30.18S
MANITOWISH WTR NOT AVBL
ARBOR VITAE    NOT AVBL
EAGLE RIVER    LGT RAIN  40  32  73 N7        30.15R
LAND O LAKES   LGT RAIN  39  35  85 CALM      30.18R
RHINELANDER    LGT RAIN  44  30  57 N8G18     30.14R
PHILLIPS       CLOUDY    40  37  89 N5        30.16S
ANTIGO         NOT AVBL
TOMAHAWK       NOT AVBL
MERRILL        NOT AVBL
$$

WIZ013-073-250100-
NORTHEAST WISCONSIN

CITY           SKY/WX    TMP DP  RH WIND       PRES   REMARKS
IRON MOUNTAIN  CLOUDY    52  28  39 NE9       30.10R
MARINETTE      CLOUDY    50  30  46 E14       30.08S
$$

WIZ017-030-035>037-045-250100-
CENTRAL WISCONSIN

CITY           SKY/WX    TMP DP  RH WIND       PRES   REMARKS
MEDFORD        NOT AVBL
WAUSAU         CLOUDY    56  30  37 N13G26    30.06R
MOSINEE        CLOUDY    57  30  35 N20G25    30.07R
MARSHFIELD     CLOUDY    54  33  45 N22       30.06R
WISC RAPIDS    CLOUDY    63  35  35 N12       30.04R
STEVENS POINT  NOT AVBL
WAUPACA        CLOUDY    64  27  24 NE5       30.03R
SHAWANO        CLOUDY    53  35  50 E9        30.06R
CLINTONVILLE   MOCLDY    56  32  39 E8        30.05R
WAUTOMA        CLOUDY    65  32  29 E6        30.01R
$$

WIZ038-039-048-051-250100-
FOX VALLEY

CITY           SKY/WX    TMP DP  RH WIND       PRES   REMARKS
NWS GREEN BAY  MOCLDY    51  33  50 NE23G30   30.06R
APPLETON       MOCLDY    57  28  33 NE14      30.02R
OSHKOSH        FAIR      60  40  47 NE7       30.01S
FOND DU LAC    FAIR      62  37  39 NE7       30.01S
$$

WIZ022-050-052-250100-
EAST CENTRAL WISCONSIN

CITY           SKY/WX    TMP DP  RH WIND       PRES   REMARKS
EPHRAIM        NOT AVBL
WASHINGTON ISL NOT AVBL
STURGEON BAY   CLOUDY    52  31  44 N9        30.08R
MANITOWOC      FAIR      52  33  48 NE10G18   30.05R
SHEBOYGAN      FAIR      54  49  83 NE12      30.03R
$$

LMZ563-521-522-541>543-250100-
LAKESHORE

STATION/POSITION TIME  TEMP    WIND        PRES    VSBY  WAVE
                       AIR SEA DIR/SP/G                  HT/PER
                 (UTC) (F)     (DEG/KT/KT) (MB)    (MI)  (FT/S)
SHEBOYGAN LKSHOR 2300   45      10/  8/  9 1016.9F
KEWAUNEE LKSHORE 2330   45      20/  5/  7 1016.9F
NORTHPORT PIER   2340   45                 1018.6R
SISTER BAY LKSHO 2312   51      60/ 16/ 19   N/A
MENOMINEE LKSHOR 2324   38      10/ 10/ 11 1018.1
$$




USA.gov is the U.S. government's official web portal to all federal, state and local government web resources and services.